www.pogodaiklimat.ru

Погода и климат >> Архив погоды >> Норвегия >> Маяк Ferder


ПОГОДА на Маяке Ferder

  • Прогноз погоды на Маяке Ferder
  • Монитор погоды на Маяке Ferder

АРХИВ ПОГОДЫ на Маяке Ferder

Время (UTC), дата Ветер
(напр.,м/с)
 
Видим.   Явления Облачность Т
(С)
Тd
(С)
f
(%)
Тe
(С)
Тes
(С)
Комфортность P
(гПа)
Po
(гПа)
Тmin
(С)
Tmax
(С)
R
(мм)
R24
(мм)
S
(см)
13 16.09 З 10
{13}
н/о н/о +15.5 +2.7 42 +13 +13 1006.6 1005.7
14 16.09 З 8
{13}
н/о н/о +15.9 +2.7 41 +14 +14 1006.6 1005.7
15 16.09 З 9
{12}
н/о н/о +15.9 +2.7 41 +14 +14 1006.5 1005.6
16 16.09 З 9
{12}
н/о н/о +15.6 +3.4 44 +14 +14 1006.2 1005.3
17 16.09 З 8
{12}
н/о н/о +15.3 +2.2 41 +14 +14 1006.1 1005.2
18 16.09 З 10
{13}
н/о н/о +14.6 +5.2 53 +12 +12 1005.9 1005.0 +11.9 +16.1
19 16.09 З 11
{13}
н/о н/о +13.8 +4.4 53 +11 +11 1005.5 1004.6
20 16.09 З 11
{14}
н/о н/о +13.2 +4.9 57 +10 +10 1005.2 1004.3
21 16.09 З 10
{12}
н/о н/о +12.5 +5.0 60 +9 +9 1004.7 1003.8
22 16.09 З 10
{13}
н/о н/о +12.0 +5.2 63 +9 +9 1004.0 1003.1
23 16.09 З 10
{13}
н/о н/о +11.8 +4.8 62 +8 +8 1003.5 1002.6
00 17.09 З 10
{14}
н/о н/о +11.4 +5.1 65 +8 +8 1003.1 1002.2
01 17.09 З 7
{11}
н/о н/о +11.0 +4.5 64 +8 +8 1002.4 1001.5
02 17.09 З 8
{11}
н/о н/о +10.5 +4.2 65 +7 +7 1001.9 1001.0
03 17.09 З 8
{11}
н/о н/о +10.5 +3.8 63 +7 +7 1001.6 1000.7
04 17.09 З 8
{12}
н/о н/о +10.1 +2.5 59 +6 +6 1001.3 1000.4
05 17.09 СЗ 7
{10}
н/о н/о +9.8 +2.0 58 +6 +6 1001.5 1000.6
06 17.09 СЗ 6
{12}
н/о н/о +9.4 +1.3 57 +6 +6 1001.4 1000.5 +9.4 +14.6
07 17.09 СЗ 6
{9}
н/о н/о +9.9 +1.6 56 +7 +7 1001.5 1000.6
08 17.09 СЗ 8
{12}
н/о н/о +10.2 +0.3 50 +7 +7 1001.8 1000.9
09 17.09 С 8
{13}
н/о н/о +11.0 +0.7 49 +8 +8 1002.2 1001.3
10 17.09 С 8
{13}
н/о н/о +11.6 +1.3 49 +9 +9 1002.8 1001.9
11 17.09 С 9
{14}
н/о н/о +11.8 +2.3 52 +9 +9 1003.6 1002.7
12 17.09 С 9
{14}
н/о н/о +12.0 +1.1 47 +9 +9 1004.3 1003.4
13 17.09 С 10
{13}
н/о н/о +12.7 +2.0 48 +10 +10 1005.0 1004.1
14 17.09 С 10
{14}
н/о н/о +13.2 +1.9 46 +10 +10 1005.7 1004.8
15 17.09
{12}
н/о н/о +13.7 +1.1 42 1006.3 1005.4
16 17.09 С 8
{12}
н/о н/о +13.9 +2.5 46 +12 +12 1007.2 1006.3
17 17.09 СЗ 5
{10}
н/о н/о +13.8 +0.8 41 +12 +12 1007.7 1006.8
18 17.09 СЗ 5
{14}
н/о н/о +13.1 +1.2 44 +11 +11 1008.4 1007.5 +9.4 +13.9
19 17.09 СЗ 9
{11}
н/о н/о +12.6 +0.7 44 +10 +10 1009.2 1008.3
20 17.09 СЗ 8
{11}
н/о н/о +11.9 +2.1 51 +9 +9 1010.3 1009.4
21 17.09 СЗ 8
{10}
н/о н/о +11.5 +2.5 54 +8 +8 1011.0 1010.1
22 17.09 СЗ 7
{11}
н/о н/о +11.3 +2.6 55 +8 +8 1011.5 1010.6
23 17.09 СЗ 8
{10}
н/о н/о +11.3 +3.6 59 +8 +8 1012.0 1011.1
00 18.09 СЗ 7
{11}
н/о н/о +11.1 +3.7 60 +8 +8 1012.5 1011.6
01 18.09 СЗ 8
{9}
н/о н/о +11.0 +3.3 59 +8 +8 1012.8 1011.9
02 18.09 СЗ 8
{9}
н/о н/о +10.7 +3.3 60 +7 +7 1013.1 1012.2
03 18.09 СЗ 8
{10}
н/о н/о +10.7 +3.0 59 +7 +7 1013.5 1012.6
04 18.09 СЗ 7
{10}
н/о н/о +10.5 +2.1 56 +7 +7 1014.0 1013.1
05 18.09 СЗ 6
{9}
н/о н/о +10.2 +2.6 59 +7 +7 1014.5 1013.6
06 18.09 СЗ 7
{10}
н/о н/о +10.2 +2.1 57 +7 +7 1015.1 1014.2 +9.9 +13.1
07 18.09 С 7
{10}
н/о н/о +10.9 +2.0 54 +8 +8 1015.6 1014.7
08 18.09 С 7
{10}
н/о н/о +11.5 +1.2 49 +9 +9 1016.1 1015.2
09 18.09 С 5
{8}
н/о н/о +12.3 +1.9 49 +10 +10 1016.8 1015.9
10 18.09
{8}
н/о н/о +13.0 +2.0 47 1016.9 1016.0
11 18.09 С 6
{9}
н/о н/о +13.3 +2.0 46 +11 +11 1017.3 1016.4
12 18.09 С 6
{10}
н/о н/о +13.3 +3.1 50 +11 +11 1017.5 1016.6
13 18.09 С 3
{6}
н/о н/о +13.8 +3.0 48 +13 +13 1017.5 1016.6
14 18.09 СЗ 2
{5}
н/о н/о +13.9 +3.1 48 +14 +14 1017.8 1016.9
15 18.09 ЮЗ 6
{8}
н/о н/о +13.8 +3.9 51 +12 +12 1017.8 1016.9
16 18.09 З 6
{8}
н/о н/о +13.8 +5.5 57 +12 +12 1017.9 1017.0
17 18.09 З 6
{8}
н/о н/о +14.1 +5.0 54 +12 +12 1018.2 1017.3
18 18.09 З 7
{9}
н/о н/о +13.6 +5.3 57 +11 +11 1018.8 1017.9 +10.1 +14.2
19 18.09 СЗ 7
{8}
н/о н/о +12.9 +4.6 57 +10 +10 1019.3 1018.4
20 18.09 С 8
{9}
н/о н/о +12.6 +2.2 49 +10 +10 1019.9 1019.0
21 18.09 С 8
{11}
н/о н/о +12.4 +2.0 49 +10 +10 1020.6 1019.7
22 18.09 С 7
{11}
н/о н/о +11.6 +2.4 53 +9 +9 1021.1 1020.2
23 18.09 С 8
{11}
н/о н/о +11.7 +2.2 52 +9 +9 1021.8 1020.9
00 19.09 С 7
{11}
н/о н/о +11.5 +2.3 53 +9 +9 1022.4 1021.5
01 19.09 С 7
{10}
н/о н/о +10.9 +2.0 54 +8 +8 1022.8 1021.9
02 19.09 С 6
{9}
н/о н/о +10.5 +1.9 55 +8 +8 1023.4 1022.5
03 19.09 СЗ 6
{8}
н/о н/о +10.2 +2.1 57 +7 +7 1023.5 1022.6
04 19.09 С 5
{7}
н/о н/о +9.9 +0.8 53 +7 +7 1023.9 1023.0
05 19.09 СЗ 3
{7}
н/о н/о +9.3 +0.2 53 +7 +7 1024.2 1023.3
06 19.09 СЗ 4
{10}
н/о н/о +9.3 +0.5 54 +7 +7 1025.0 1024.0 +9.2 +13.6
07 19.09 СЗ 4
{5}
н/о н/о +9.7 +0.9 54 +7 +7 1025.2 1024.3
08 19.09 С 5
{6}
н/о н/о +10.6 +0.6 50 +8 +8 1025.7 1024.8
09 19.09 СЗ 4
{6}
н/о н/о +11.3 +0.7 48 +9 +9 1026.1 1025.2
10 19.09 С 2
{5}
н/о н/о +11.9 +0.4 45 +11 +11 1026.2 1025.3
11 19.09 С 1
{3}
н/о н/о +12.4 +0.5 44 +13 +13 1026.0 1025.1
12 19.09 ЮЗ 2
{6}
н/о н/о +12.7 +1.1 45 +12 +12 1026.0 1025.1
13 19.09 ЮЗ 3
{4}
н/о н/о +12.6 +1.6 47 +11 +11 1025.6 1024.7
14 19.09 ЮЗ 5
{7}
н/о н/о +12.5 +0.6 44 +11 +11 1025.1 1024.2
15 19.09 З 6
{8}
н/о н/о +12.4 +1.7 48 +10 +10 1024.9 1024.0
16 19.09 ЮЗ 5
{7}
н/о н/о +12.3 +3.0 53 +10 +10 1024.8 1023.9
17 19.09 З 3
{5}
н/о н/о +12.2 +2.7 52 +11 +11 1024.6 1023.7
18 19.09 ЮЗ 3
{8}
н/о н/о +12.2 +2.4 51 +11 +11 1024.3 1023.4 +9.3 +12.8
19 19.09 ЮЗ 4
{5}
н/о н/о +12.3 +4.5 59 +11 +11 1024.1 1023.2
20 19.09 З 4
{6}
н/о н/о +12.7 +5.4 61 +11 +11 1023.8 1022.9
21 19.09 З 4
{5}
н/о н/о +12.5 +4.5 58 +11 +11 1023.4 1022.5
22 19.09 З 3
{4}
н/о н/о +12.6 +3.6 54 +11 +11 1023.4 1022.5
23 19.09 З 5
{6}
н/о н/о +12.1 +4.1 58 +10 +10 1023.0 1022.1
00 20.09 З 3
{6}
н/о н/о +11.6 +4.1 60 +10 +10 1022.7 1021.8
01 20.09 З 6
{7}
н/о н/о +11.8 +3.8 58 +9 +9 1022.2 1021.3
02 20.09 З 6
{8}
н/о н/о +11.8 +3.3 56 +9 +9 1021.5 1020.6
03 20.09 З 6
{8}
н/о н/о +12.1 +5.5 64 +10 +10 1020.9 1020.0
04 20.09 З 6
{7}
н/о н/о +11.8 +6.1 68 +9 +9 1020.1 1019.2
05 20.09 З 7
{8}
н/о н/о +11.7 +7.0 73 +9 +9 1019.9 1019.0
06 20.09 н/о
07 20.09 З 7
{8}
н/о н/о +11.6 +6.5 71 +9 +9 1019.5 1018.6
08 20.09 З 5
{8}
н/о н/о +11.9 +7.2 73 +10 +10 1019.5 1018.6
09 20.09 З 6
{7}
н/о н/о +13.1 +7.8 70 +11 +11 1019.3 1018.4
10 20.09 З 6
{9}
н/о н/о +14.2 +9.2 72 +12 +12 1019.3 1018.4
11 20.09 ЮЗ 7
{9}
н/о н/о +14.7 +9.3 70 +13 +13 1018.7 1017.8
12 20.09 З 8
{10}
н/о н/о +15.2 +10.0 71 +13 +13 1018.0 1017.1
13 20.09 ЮЗ 6
{9}
н/о н/о +15.9 +10.7 71 +15 +15 1017.9 1017.0
14 20.09 ЮЗ 5
{9}
н/о н/о +16.7 +11.4 71 +16 +16 1017.3 1016.4
15 20.09 З 8
{9}
н/о н/о +16.0 +11.8 76 +14 +14 1016.5 1015.6
16 20.09 З 8
{10}
н/о н/о +16.3 +11.9 75 +15 +15 1016.1 1015.2
17 20.09 н/о
18 20.09 СЗ 2
{10}
н/о н/о +16.4 +12.0 75 +17 +17 1016.5 1015.6 +11.5 +16.7
19 20.09 СЗ 5
{6}
н/о н/о +16.3 +10.6 69 +15 +15 1016.3 1015.4
20 20.09 З 3
{6}
н/о н/о +16.0 +9.9 67 +16 +16 1016.7 1015.8
21 20.09 З 2
{4}
н/о н/о +15.3 +9.4 68 +15 +15 1016.7 1015.8
22 20.09 З 5
{6}
н/о н/о +15.1 +9.5 69 +14 +14 1016.8 1015.9
23 20.09 З 5
{6}
н/о н/о +14.8 +9.6 71 +13 +13 1016.8 1015.9
00 21.09 З 5
{6}
н/о н/о +14.7 +9.1 69 +13 +13 1017.1 1016.2
01 21.09 З 5
{6}
н/о н/о +14.4 +10.0 75 +13 +13 1017.1 1016.2
02 21.09 СЗ 4
{6}
н/о н/о +14.3 +8.7 69 +13 +13 1017.3 1016.4
03 21.09 З 4
{6}
н/о н/о +14.3 +8.9 70 +13 +13 1017.4 1016.5
04 21.09 З 2
{5}
н/о н/о +13.7 +8.6 71 +13 +13 1017.3 1016.4
05 21.09 СЗ 2
{5}
н/о н/о +13.7 +7.0 64 +13 +13 1017.5 1016.6
06 21.09 СЗ 1
{6}
н/о н/о +13.6 +8.2 70 +14 +14 1017.8 1016.9 +13.5 +16.6
07 21.09 СЗ 1
{2}
н/о н/о +14.4 +8.4 67 +15 +15 1017.8 1016.9
08 21.09 СВ 1
{2}
н/о н/о +14.9 +8.6 66 +15 +15 1018.1 1017.2
09 21.09 В 3
{3}
н/о н/о +15.1 +11.5 79 +14 +14 1017.8 1016.9
10 21.09 ЮЗ 3
{6}
н/о н/о +15.9 +11.5 75 +15 +15 1018.4 1017.5
11 21.09 ЮЗ 3
{5}
н/о н/о +15.8 +11.8 77 +15 +15 1018.5 1017.6
12 21.09 ЮЗ 1
{6}
н/о н/о +16.0 +12.0 77 +17 +17 1017.7 1016.8
13 21.09 ЮЗ 6
{7}
н/о н/о +16.2 +11.6 74 +15 +15 1017.6 1016.7
14 21.09 ЮЗ 4
{7}
н/о н/о +16.9 +11.0 68 +16 +16 1017.3 1016.4
15 21.09 ЮЗ 5
{6}
н/о н/о +16.5 +12.1 75 +16 +16 1016.5 1015.6
16 21.09 ЮЗ 5
{6}
н/о н/о +15.9 +12.1 78 +15 +15 1016.2 1015.3
17 21.09 ЮЗ 3
{7}
н/о н/о +15.3 +12.3 82 +15 +15 1016.1 1015.2
18 21.09 ЮЗ 5
{7}
н/о н/о +14.9 +12.2 84 +13 +13 1015.8 1014.9 +13.5 +17.1
19 21.09 Ю 4
{7}
н/о н/о +14.9 +12.2 84 +14 +14 1015.8 1014.9
20 21.09 Ю 4
{6}
н/о н/о +14.8 +12.5 86 +14 +14 1015.8 1014.9
21 21.09 Ю 4
{5}
н/о н/о +14.7 +12.6 87 +13 +13 1015.7 1014.8
22 21.09 Ю 4
{5}
н/о н/о +14.6 +12.6 88 +13 +13 1015.5 1014.6
23 21.09 Ю 4
{5}
н/о н/о +14.5 +12.7 89 +13 +13 1015.6 1014.7
00 22.09 Ю 3
{7}
н/о н/о +14.1 +12.3 89 +13 +13 1015.5 1014.6
01 22.09 Ю 3
{5}
н/о н/о +13.7 +11.9 89 +12 +12 1015.6 1014.7
02 22.09 Ю 3
{5}
н/о н/о +13.7 +11.8 88 +13 +13 1015.4 1014.5
03 22.09 ЮВ 3
{4}
н/о н/о +13.7 +11.8 88 +13 +13 1015.4 1014.5
04 22.09 Ю 2
{4}
н/о н/о +13.6 +11.5 87 +13 +13 1015.5 1014.6
05 22.09 В 2
{4}
н/о н/о +13.4 +11.3 87 +13 +13 1015.5 1014.6
06 22.09 ЮВ 2
{5}
н/о н/о +12.9 +11.0 88 +12 +12 1015.7 1014.8 +12.9 +15.0
07 22.09 В 3
{4}
н/о н/о +12.9 +11.0 88 +11 +11 1015.8 1014.9
08 22.09 СВ 3
{5}
н/о н/о +13.1 +11.0 87 +12 +12 1016.0 1015.1
09 22.09 В 4
{5}
н/о н/о +13.1 +10.6 85 +11 +11 1016.1 1015.2
10 22.09 СВ 4
{6}
н/о н/о +13.1 +10.5 84 +11 +11 1016.1 1015.2
11 22.09 СВ 4
{6}
н/о н/о +13.2 +10.6 84 +11 +11 1016.0 1015.1
12 22.09 С 4
{6}
н/о н/о +13.4 +10.8 84 +12 +12 1015.8 1014.9
13 22.09 С 3
{4}
н/о н/о +14.1 +11.3 83 +13 +13 1016.2 1015.3
14 22.09 Ю 1
{3}
н/о н/о +15.0 +11.4 79 +16 +16 1016.2 1015.3
15 22.09 Ю 3
{5}
н/о н/о +14.8 +11.0 78 +14 +14 1016.6 1015.7
16 22.09 С 2
{3}
н/о н/о +14.1 +10.5 79 +14 +14 1016.2 1015.3
17 22.09 С 3
{4}
н/о н/о +14.1 +11.1 82 +13 +13 1016.4 1015.5
18 22.09 В 11
{14}
н/о н/о +13.8 +9.9 77 +11 +11 1017.3 1016.4 +12.7 +15.3
19 22.09 В 12
{14}
н/о н/о +13.1 +9.4 78 +10 +10 1018.0 1017.1
20 22.09 В 9
{14}
н/о н/о +12.8 +9.1 78 +10 +10 1018.8 1017.9
21 22.09 В 9
{11}
н/о н/о +12.8 +9.1 78 +10 +10 1019.2 1018.3
22 22.09 В 8
{11}
н/о н/о +12.8 +8.9 77 +10 +10 1019.8 1018.9
23 22.09 В 8
{11}
н/о н/о +12.8 +8.7 76 +10 +10 1020.1 1019.2
00 23.09 В 8
{14}
н/о н/о +12.8 +8.7 76 +10 +10 1020.2 1019.3
01 23.09 В 7
{10}
н/о н/о +12.6 +8.7 77 +10 +10 1020.4 1019.5
02 23.09 В 7
{9}
н/о н/о +12.1 +8.4 78 +9 +9 1020.4 1019.5
03 23.09 В 6
{9}
н/о н/о +11.6 +8.6 82 +9 +9 1020.3 1019.4
04 23.09 В 7
{9}
н/о н/о +11.2 +8.3 82 +8 +8 1020.3 1019.4
05 23.09 В 6
{8}
н/о н/о +11.0 +8.4 84 +8 +8 1020.5 1019.6
06 23.09 В 7
{10}
н/о н/о +11.4 +7.9 79 +8 +8 1020.8 1019.9 +10.8 +13.8
07 23.09 В 7
{9}
н/о н/о +11.2 +7.5 78 +8 +8 1021.0 1020.1
08 23.09 В 6
{9}
н/о н/о +11.2 +7.1 76 +8 +8 1021.2 1020.3
09 23.09 В 6
{8}
н/о н/о +11.3 +6.9 74 +8 +8 1021.3 1020.4
10 23.09 В 5
{8}
н/о н/о +11.5 +6.8 73 +9 +9 1020.9 1020.0
11 23.09 СВ 3
{6}
н/о н/о +11.9 +6.8 71 +10 +10 1020.6 1019.7
12 23.09 С 3
{9}
н/о н/о +12.0 +6.9 71 +10 +10 1020.2 1019.3
13 23.09 С 4
{5}
н/о н/о +12.8 +7.5 70 +11 +11 1019.9 1019.0

 

Местоположение метеостанции Маяк Ferder (Норвегия): широта 59.03 долгота 10.53 высота над уровнем моря 6 м.

В архиве по умолчанию представлена погода на Маяке Ferder за последнюю неделю. Архивные данные за месяц целиком и за предыдущие месяцы, начиная с января 2011 года, Вы можете получить, выбрав интересующий диапазон дат из раскрывающегося списка и нажав кнопку "Ввод!".


*Определитесь, кто Вы:
робот инопланетянин человек

Внимание! Время в таблицах - всемирное. Для получения местного времени необходимо прибавить поправку, которая равна 1 ч.

Смотрите также архив погоды в соседних городах и на ближайших метеорологических станциях:

Погода на Маяке Stromtangen (Норвегия) (22 км)
Погода на Маяке Svenner (Норвегия) (23 км)
Погода в Мелсоме (Норвегия) (25 км)
Погода в Нордкостере (Швеция) (31 км)
Погода в Рюгге (Норвегия) (42 км)
Погода в Сарпсборге (Норвегия) (44 км)
Погода на Гуллхолмене (Норвегия) (45 км)
Погода в Порсгрунне (Норвегия) (50 км)
Погода в Йомфрулянде (Норвегия) (58 км)
Погода на Вадероарна (Швеция) (59 км)

Пояснения к столбцам:

Ветер - указаны скорость ветра в м/с - средняя за 10 мин, порывы в срок и между сроками (в фигурных скобках) и направление, откуда дует ветер: С - северный, СВ - северо-восточный, В - восточный, ЮВ - юго-восточный, Ю - южный, ЮЗ - юго-западный, З - западный, СЗ - северо-западный.
Видимость - горизонтальная дальность видимости в метрах или километрах. При видимости от 1 до 10 км при отсутствии осадков обычно наблюдается дымка, при ухудшении видимости до 1 км и менее - туман. В сухую погоду видимость может ухудшаться дымом, пылью или мглою.
Явления - указаны атмосферные явления, наблюдавшиеся в срок или в последний час перед сроком; фигурными скобками обозначены явления, наблюдавшиеся между сроками (за 1-3 часа до срока); квадратными скобками обозначены град или гололедные отложения с указанием их диаметра в мм.
Облачность - указаны через наклонную черту общая и нижняя облачность в баллах и высота нижней границы облаков в метрах; квадратными скобками обозначены формы облаков: Ci - перистые, Cs - перисто-слоистые, Cc - перисто-кучевые, Ac - высококучевые, As - высокослоистые, Sc - слоисто-кучевые, Ns - слоисто-дождевые, Cu - кучевые, Cb - кучево-дождевые. Подробнее классификацию облаков см. в Атласе облаков (PDF).
T - Температура воздуха - температура, измеренная на высоте 2 м над землей.
Td - Температура точки росы - температура, при понижении до которой содержащийся в воздухе водяной пар достигнет насыщения.
f - Относительная влажность воздуха - влажноcть воздуха, измеренная на высоте 2 м над землей.
Te - Эффективная температура - температура, которую ощущает одетый по сезону человек в тени. Характеристика душности погоды. При расчете учитывается влияние влажности воздуха и скорости ветра на теплоощущения человека.
Tes - Эффективная температура на солнце - температура, которую ощущает человек, с поправкой на солнечный нагрев. Характеристика знойности погоды. Зависит от высоты солнца над горизонтом, облачности и скорости ветра. Ночью, в пасмурную погоду, а также при ветре 12 м/с и более поправка равна нулю.
P - Атмосферное давление - приведенное к уровню моря атмосферное давление.
Po - Атмосферное давление - измеренное на уровне метеостанции атмосферное давление.
Tmin - Минимальная температура - минимум температуры воздуха на высоте 2 м над землей.
Tmax - Максимальная температура - максимум температуры воздуха на высоте 2 м над землей.
R - Количество осадков - Количество выпавших осадков за период времени, мм. При наведении курсора мыши на число - период времени, за который выпало указанное количество осадков.
R24 - Количество осадков - Количество выпавших осадков за 24 часа, мм.
S - Снежный покров - Высота снежного покрова, см. При наведении курсора мыши на число - состояние снежного покрова и степень покрытия местности в баллах.